Wind_Speed
11 10 9 9 7 5 4 4 4 5 3 3 6 8 9 10 9 8 8 8 9 9 8 8 8 8 8 8 7 7 6 6 7 7 7 6 5 5 5 3 3 2 3 4
12 11 10 9 8 7 7 6 5 5 4 4 5 7 8 10 10 10 9 8 8 8 8 8 8 8 8 7 6 6 6 7 7 8 8 7 6 6 6 5 4 4 4 5
13 11 11 11 10 9 10 8 7 7 7 6 7 8 9 9 8 8 9 9 9 9 8 7 7 8 8 7 6 7 7 8 8 8 8 8 7 6 6 7 6 5 5 6
14 13 13 13 12 11 11 9 9 9 8 8 8 10 11 10 8 9 9 9 10 8 8 8 7 7 7 7 6 7 7 8 8 8 8 8 7 7 7 7 7 6 6 6
16 16 14 15 14 13 12 11 11 10 10 11 9 11 13 12 11 11 10 9 10 9 8 8 8 8 7 7 6 6 8 8 8 8 8 8 8 7 8 8 7 7 7 7
17 17 17 16 15 15 14 13 13 12 12 12 11 11 15 15 12 12 11 9 9 9 9 8 8 8 7 7 6 6 7 8 8 8 9 8 8 8 9 8 8 8 8 8
18 17 17 16 16 17 16 15 14 12 11 12 10 11 14 16 14 14 12 9 8 9 9 8 7 7 8 7 6 7 7 8 8 8 9 9 9 9 9 9 8 9 9 9
17 17 17 18 18 18 17 16 15 14 14 13 12 14 14 13 14 15 14 12 9 10 9 9 8 8 8 8 8 8 8 9 10 10 10 10 9 9 9 9 10 10 10 11
17 18 18 19 19 19 18 18 16 16 15 15 15 14 14 14 14 14 13 12 12 11 11 10 9 9 9 8 8 9 9 10 10 11 11 11 10 10 10 10 11 11 12 12
19 18 19 20 20 20 19 18 18 19 16 17 17 17 16 14 14 14 15 14 13 12 12 11 11 10 10 10 9 10 10 11 11 12 12 12 12 11 11 12 13 13 13 14
21 20 19 21 21 19 19 19 20 19 18 18 17 17 15 14 16 15 15 15 13 13 13 12 11 11 11 11 11 11 11 12 12 12 13 13 13 13 13 14 15 16 16 16
23 22 21 21 22 19 20 20 20 20 21 20 19 19 18 16 17 16 15 15 15 14 14 13 12 12 12 13 12 12 12 13 13 13 13 14 14 15 15 15 16 17 17 17
25 26 23 20 20 21 20 21 20 20 21 21 20 20 18 19 20 19 17 17 16 15 15 15 14 13 13 14 14 14 14 14 14 15 15 15 15 15 16 16 18 18 18 18
27 28 25 22 20 19 19 20 21 21 22 22 22 20 18 20 20 20 20 19 18 16 17 17 16 15 15 15 15 15 16 16 16 16 16 16 16 17 18 18 18 18 18 19
30 29 28 25 22 21 21 19 20 22 23 23 22 21 22 22 22 21 21 21 21 20 20 19 18 18 17 17 17 16 16 17 17 17 17 17 18 18 19 19 19 19 19 20
30 30 29 27 24 23 22 23 22 22 24 24 24 24 24 23 24 24 25 24 23 22 21 21 20 20 20 19 18 18 18 18 19 19 19 19 19 19 20 20 21 21 21 21
30 30 29 28 25 24 25 23 24 24 23 24 25 26 25 26 26 26 27 27 25 25 24 23 22 22 21 21 20 19 19 20 21 21 21 21 20 21 21 20 21 22 22 23
31 31 30 28 27 27 26 25 25 27 26 28 27 27 28 28 28 29 27 27 27 26 25 24 23 23 22 22 21 22 22 22 23 23 23 23 23 22 22 21 22 23 24 25
31 32 31 29 28 28 27 27 27 28 29 30 30 30 30 29 28 29 27 26 27 26 25 25 24 24 24 24 24 24 24 24 24 25 25 25 25 24 24 24 25 26 26 26
32 33 32 31 30 30 30 28 29 29 30 30 31 30 29 29 29 29 28 28 28 28 26 26 26 25 25 26 26 27 27 27 27 27 27 27 26 26 26 26 27 28 28 28
31 33 33 32 32 32 32 31 29 30 31 31 30 30 30 31 31 31 31 29 28 28 27 27 27 26 26 26 27 28 28 29 28 28 28 27 27 28 28 28 29 30 30 30
30 33 34 33 33 33 31 32 33 32 32 32 31 30 31 31 31 31 32 30 29 29 29 29 28 27 27 28 28 29 29 29 29 29 28 28 28 29 30 31 32 32 31 31
32 32 33 34 35 34 34 33 32 32 32 32 32 31 31 31 31 31 32 31 30 30 30 30 30 29 28 29 29 29 29 29 29 30 30 30 30 30 31 32 32 32 31 31
33 34 35 35 35 35 34 34 35 33 32 32 32 31 32 32 32 32 32 32 31 31 30 30 30 30 29 30 29 30 30 30 31 31 32 31 32 32 33 33 32 32 32 32
34 35 36 36 36 37 36 35 34 34 33 33 33 33 32 32 33 33 33 33 32 31 31 31 31 31 30 30 30 31 31 31 32 32 32 33 34 35 34 34 33 33 33 34
34 35 36 35 35 37 37 37 35 33 33 31 31 32 31 31 32 32 32 32 31 31 32 31 31 31 32 32 32 32 32 32 33 33 33 33 34 34 35 35 34 34 35 35
Wind_Direction
207 207 204 209 212 203 232 240 276 297 326 331 332 332 339 351 358 0 5 9 11 13 15 16 17 17 20 20 27 29 27 25 23 23 23 27 26 21 21 15 2 337 318 318
212 212 211 214 211 217 240 251 268 276 282 290 291 307 324 342 349 356 354 355 359 3 6 7 10 13 17 21 22 22 19 16 20 21 20 19 22 19 15 10 360 349 336 331
213 218 218 219 216 222 230 236 253 258 267 277 281 296 303 322 337 341 343 349 352 354 356 357 358 5 11 13 15 13 16 17 16 14 16 18 16 16 14 9 0 347 341 335
220 221 222 222 224 223 232 236 251 254 261 277 288 294 293 307 320 328 331 341 349 352 345 346 350 352 358 2 2 4 5 7 10 11 10 8 3 5 6 4 0 352 346 343
224 221 222 224 223 228 235 238 246 251 254 264 268 281 294 300 308 315 320 327 336 345 344 339 345 345 349 350 349 355 359 358 358 358 357 356 355 359 2 359 353 348 345 343
223 225 224 228 227 226 230 239 245 245 249 258 258 262 281 290 300 304 311 313 323 331 335 336 336 337 341 341 344 345 346 347 347 346 345 346 348 349 350 350 349 347 343 339
226 226 229 232 231 229 228 235 246 250 248 261 265 261 274 288 295 297 298 299 312 318 323 331 335 332 331 330 327 331 333 335 337 337 336 335 334 332 333 335 335 335 334 331
232 234 232 237 234 232 231 233 238 247 259 266 258 250 262 273 284 290 295 296 301 306 313 319 324 325 325 323 319 317 321 324 327 328 330 329 327 325 326 327 325 325 322 321
226 239 236 238 238 232 231 234 239 246 251 260 263 263 263 269 278 282 287 287 290 298 304 306 310 311 311 311 310 307 310 315 319 322 323 325 325 325 323 320 319 319 315 312
220 234 236 239 241 236 230 231 236 236 246 259 262 263 262 272 277 277 279 281 282 295 298 301 302 304 304 304 302 303 305 308 310 313 315 317 319 320 317 314 314 312 310 310
222 228 234 239 241 241 232 228 229 234 236 249 261 260 264 263 273 272 273 278 285 288 293 298 301 300 299 299 299 300 301 302 305 307 309 311 312 314 313 313 312 312 310 309
225 227 234 239 244 243 238 232 231 237 239 237 249 263 266 265 270 273 272 276 278 278 283 287 292 293 294 295 295 296 298 298 300 303 307 308 309 310 308 309 311 309 309 308
227 227 230 231 238 244 238 232 232 237 244 248 250 259 260 264 266 269 270 271 274 272 276 279 283 285 289 291 293 295 297 295 297 300 303 304 304 306 307 308 309 307 306 307
229 229 225 227 227 239 239 234 233 233 238 246 251 257 257 260 263 269 269 267 267 270 271 272 275 279 282 287 288 290 295 293 295 297 298 300 302 302 304 307 307 306 306 307
229 231 229 230 226 229 237 234 234 237 234 239 241 246 256 258 260 261 262 265 266 267 266 267 270 273 277 282 286 289 292 294 297 297 298 297 300 300 301 303 304 306 307 307
232 232 232 232 230 232 237 239 238 240 244 247 246 245 250 255 257 258 258 259 264 267 266 268 270 270 272 276 281 285 289 291 293 296 298 297 298 297 298 301 304 307 307 305
234 233 232 233 232 231 236 238 239 238 242 246 249 251 250 254 258 258 259 262 264 266 268 269 269 268 270 272 276 281 285 288 290 291 292 294 295 296 297 298 301 305 305 305
234 232 233 235 234 234 236 236 241 243 243 243 247 250 252 256 259 259 258 261 263 264 265 266 267 267 267 269 273 278 283 285 287 289 290 291 293 295 296 298 300 301 303 304
234 233 233 235 238 238 239 238 239 243 246 245 245 249 252 255 259 257 257 259 261 263 265 264 265 266 267 268 272 275 280 283 285 288 289 288 289 292 294 296 297 299 301 303
233 234 233 234 237 239 238 239 240 242 247 247 246 248 251 256 256 258 257 260 261 266 264 264 263 264 266 268 272 275 279 283 285 286 287 286 287 288 291 293 296 297 298 299
234 235 233 234 238 242 241 240 241 242 246 249 250 251 254 256 256 258 259 261 262 265 264 263 263 264 266 268 271 274 278 282 284 284 285 284 286 289 290 292 294 295 295 295
234 234 234 234 236 240 240 241 242 244 247 251 252 252 255 258 259 260 261 263 264 263 265 264 264 264 265 267 270 274 277 280 281 282 284 285 288 291 291 291 292 292 293 293
229 230 231 233 236 240 244 244 244 246 249 252 256 255 256 259 260 261 262 263 263 263 264 264 264 264 265 267 270 273 276 279 281 281 283 285 287 289 291 291 291 292 293 294
229 229 231 231 235 238 243 244 246 247 248 251 255 256 256 258 260 261 262 263 262 262 263 263 264 264 266 268 270 272 275 277 279 281 282 284 286 287 289 290 292 294 294 294
231 230 234 237 239 241 244 246 248 250 251 255 256 256 258 259 260 261 262 262 261 260 261 262 263 264 266 268 270 272 274 276 278 281 283 284 286 286 287 289 291 293 294 295
233 231 233 236 240 241 245 248 249 250 252 255 257 256 257 259 259 259 260 260 260 260 261 262 262 264 266 268 270 271 274 276 278 281 282 283 286 287 288 289 291 292 293 293
Height
5902 5905 5907 5909 5911 5913 5914 5915 5916 5916 5916 5917 5916 5914 5912 5911 5910 5909 5908 5907 5906 5905 5904 5902 5901 5900 5900 5899 5898 5898 5898 5897 5896 5895 5894 5894 5893 5892 5892 5891 5891 5891 5891 5891
5901 5904 5907 5908 5911 5913 5915 5916 5916 5917 5917 5917 5916 5913 5912 5911 5911 5910 5909 5908 5907 5906 5905 5904 5903 5901 5901 5900 5899 5899 5898 5898 5897 5896 5895 5894 5894 5893 5893 5892 5892 5891 5891 5891
5899 5904 5906 5907 5909 5912 5915 5916 5916 5917 5916 5915 5915 5914 5911 5911 5910 5910 5909 5908 5907 5906 5905 5904 5903 5902 5901 5900 5900 5900 5899 5898 5898 5897 5896 5895 5895 5894 5894 5893 5892 5892 5891 5891
5898 5902 5904 5906 5908 5911 5913 5915 5915 5915 5915 5915 5915 5913 5911 5910 5909 5909 5909 5908 5907 5907 5905 5904 5903 5903 5902 5901 5901 5900 5900 5899 5898 5898 5897 5896 5895 5894 5894 5894 5893 5892 5892 5891
5895 5898 5901 5903 5906 5909 5911 5913 5913 5913 5914 5913 5913 5913 5911 5909 5909 5909 5908 5908 5907 5906 5905 5904 5903 5903 5902 5902 5901 5900 5900 5899 5899 5898 5897 5896 5895 5895 5894 5894 5893 5893 5892 5891
5892 5896 5898 5901 5904 5906 5908 5910 5910 5911 5912 5912 5912 5913 5910 5907 5907 5908 5907 5906 5906 5905 5905 5904 5904 5903 5902 5902 5901 5901 5900 5900 5899 5898 5897 5896 5896 5895 5894 5894 5893 5892 5892 5891
5889 5892 5895 5897 5900 5903 5905 5907 5908 5908 5909 5910 5910 5911 5910 5908 5907 5907 5906 5906 5905 5905 5904 5903 5903 5902 5901 5901 5900 5900 5900 5899 5899 5898 5897 5896 5895 5895 5894 5894 5893 5892 5891 5890
5886 5890 5892 5894 5896 5899 5901 5904 5905 5907 5907 5908 5908 5908 5908 5907 5907 5906 5905 5903 5903 5904 5903 5902 5902 5901 5900 5900 5899 5899 5899 5898 5898 5897 5896 5895 5895 5894 5893 5892 5891 5891 5890 5889
5884 5887 5890 5891 5893 5895 5897 5899 5902 5904 5904 5905 5904 5904 5905 5905 5904 5904 5903 5903 5902 5901 5901 5901 5900 5900 5899 5899 5898 5898 5897 5897 5896 5896 5895 5894 5893 5892 5892 5891 5890 5889 5888 5887
5879 5883 5885 5886 5888 5890 5893 5896 5899 5900 5901 5901 5901 5901 5902 5902 5902 5902 5901 5900 5899 5899 5899 5899 5898 5898 5897 5897 5896 5896 5896 5895 5895 5894 5893 5892 5892 5891 5890 5889 5888 5887 5886 5884
5874 5878 5881 5882 5883 5886 5889 5891 5893 5895 5897 5899 5898 5899 5896 5897 5899 5898 5898 5897 5897 5897 5897 5896 5896 5895 5895 5894 5894 5894 5894 5893 5893 5892 5891 5891 5890 5889 5887 5887 5886 5884 5883 5882
5868 5873 5875 5878 5879 5881 5884 5886 5889 5891 5892 5893 5894 5898 5893 5892 5894 5893 5894 5894 5894 5894 5894 5894 5893 5893 5892 5892 5892 5891 5891 5890 5890 5889 5889 5888 5887 5886 5885 5884 5883 5882 5880 5879
5863 5866 5869 5872 5877 5877 5878 5881 5883 5887 5888 5889 5890 5893 5891 5890 5889 5889 5889 5889 5889 5889 5890 5890 5890 5890 5889 5889 5888 5888 5888 5887 5887 5886 5886 5885 5884 5883 5882 5881 5879 5878 5877 5875
5856 5859 5863 5867 5870 5873 5873 5876 5878 5881 5884 5885 5885 5886 5885 5886 5885 5885 5885 5885 5885 5885 5886 5886 5887 5886 5886 5885 5885 5885 5884 5884 5883 5883 5882 5881 5880 5879 5878 5877 5875 5874 5872 5871
5849 5852 5856 5859 5863 5865 5867 5870 5872 5875 5877 5879 5879 5880 5880 5880 5880 5879 5880 5880 5880 5880 5881 5882 5882 5883 5882 5882 5881 5881 5881 5880 5879 5879 5878 5877 5876 5875 5874 5873 5871 5870 5869 5867
5842 5846 5850 5853 5856 5859 5862 5865 5867 5870 5871 5871 5872 5873 5874 5872 5873 5873 5874 5873 5875 5875 5875 5876 5877 5878 5878 5878 5878 5877 5877 5876 5876 5875 5874 5873 5872 5871 5870 5869 5867 5865 5864 5862
5835 5839 5843 5846 5850 5852 5856 5859 5861 5863 5865 5865 5865 5866 5866 5866 5867 5867 5868 5869 5870 5871 5870 5872 5873 5873 5873 5873 5873 5873 5873 5872 5871 5871 5869 5868 5867 5866 5865 5864 5863 5861 5859 5858
5828 5832 5836 5840 5843 5845 5852 5852 5854 5856 5856 5857 5858 5858 5859 5860 5860 5860 5861 5864 5865 5865 5865 5866 5867 5868 5868 5868 5868 5868 5868 5867 5866 5865 5864 5863 5862 5861 5860 5859 5858 5856 5854 5852
5821 5825 5828 5832 5835 5839 5842 5844 5846 5848 5849 5850 5851 5852 5852 5853 5854 5853 5855 5856 5858 5858 5859 5860 5861 5862 5863 5863 5863 5863 5862 5862 5861 5860 5859 5858 5857 5856 5854 5853 5851 5850 5848 5846
5814 5817 5821 5825 5828 5830 5834 5836 5837 5841 5842 5841 5842 5843 5844 5846 5847 5847 5847 5849 5850 5849 5851 5854 5855 5856 5856 5857 5857 5857 5856 5856 5854 5854 5852 5851 5851 5849 5848 5847 5845 5843 5842 5840
5806 5809 5813 5817 5820 5822 5825 5826 5829 5833 5833 5832 5833 5835 5837 5838 5839 5840 5841 5842 5843 5843 5845 5846 5847 5849 5850 5850 5851 5850 5850 5849 5848 5847 5846 5845 5843 5842 5841 5840 5838 5836 5834 5833
5798 5801 5805 5808 5812 5814 5814 5817 5821 5822 5824 5824 5826 5827 5829 5830 5831 5832 5833 5835 5835 5837 5838 5839 5840 5842 5843 5843 5843 5843 5843 5842 5841 5840 5839 5838 5837 5835 5834 5832 5830 5829 5827 5825
5790 5794 5796 5800 5803 5804 5805 5808 5810 5812 5815 5816 5818 5819 5821 5822 5823 5824 5825 5827 5828 5829 5830 5831 5833 5834 5835 5835 5836 5836 5835 5835 5834 5833 5832 5831 5830 5828 5826 5824 5822 5821 5819 5817
5781 5785 5787 5790 5793 5795 5797 5799 5802 5804 5807 5808 5810 5812 5813 5814 5815 5816 5817 5818 5820 5821 5822 5823 5824 5826 5827 5827 5828 5828 5828 5827 5826 5825 5824 5823 5821 5820 5818 5816 5814 5813 5811 5809
5772 5776 5778 5782 5785 5787 5789 5792 5794 5796 5798 5800 5801 5802 5803 5805 5806 5807 5809 5810 5811 5813 5814 5815 5816 5818 5819 5819 5820 5820 5820 5819 5818 5817 5816 5814 5813 5812 5810 5808 5806 5804 5802 5800
5764 5767 5771 5773 5776 5779 5781 5784 5786 5788 5790 5792 5792 5793 5795 5796 5797 5798 5800 5802 5803 5804 5806 5807 5808 5809 5810 5811 5811 5811 5811 5810 5809 5808 5807 5806 5804 5803 5801 5799 5798 5795 5793 5791